Weather in Dunedin

New Zealand     45°52′34″S   170°30′09″E
temp.,
°C
wind,
m/s
gust,
m/s
humid.,
%
clouds,
%
prec.,
mm/h
press.,
hPa
HPBL,
m
29 november, mon
mon2901:00+12wsw448412 0.0 1019155
04:00+11w2382100 0.0 1018130
07:00+11w237945 0.0 1018138
10:00+12s2269100 0.0 1018131
13:00+13ne54772 0.0 1018120
16:00+14e56740 0.0 1016144
19:00+14ene67763 0.0 1016181
22:00+14nne458566 0.0 101783
30 november, tue
tue3001:00+13nw347311 0.0 101783
04:00+12w45605 0.0 1016119
07:00+11w45615 0.0 1017158
10:00+14ssw566736 0.0 1018136
13:00+13s7988100 0.0 1018365
16:00+13s5682100 0.0 1019499
19:00+13sse3380100 0.1 1021505
22:00+12ese3383100 0.1 1023424
1 december, wed
wed101:00+12e6685100 0.2 1023524
04:00+11ene6685100 0.1 1023586
07:00+11ene7785100 0.4 1024655
10:00+11ene8985100 0.4 1025753
13:00+11ene91085100 0.6 1025794
16:00+12ne101185100 0.1 1025820
19:00+12ne101286100 0.3 1025849
22:00+13ne91285100 0.1 1025819
2 december, thu
thu201:00+13ne91387100 0.1 1025825
04:00+13ne91290100 0.2 1024708
07:00+13ne81388100 0.2 1024658
10:00+14ne91287100 0.0 1024571
13:00+14ne111286100 0.0 1023447
16:00+14ne101287100 0.3 1022434
19:00+14ne101287100 0.3 1022419
22:00+14ne9118862 0.0 1023395
3 december, fri
fri301:00+14nne57906 0.0 1022217
04:00+13nne459032 0.0 1021154
07:00+13nne459036 0.0 1021141
10:00+14ne558850 0.0 1021126
13:00+14ene7989100 0.0 1020166
16:00+14ene81088100 0.0 1018196
19:00+14ne7889100 0.1 1017142
22:00+14nne4595100 1.4 101659